Location: Newark
(43.4306°N, 0.3089°E)
Time: 22:15:24
(UTC+00:00)

SR - Pass Details

Date: 26 August 2019
Orbit: 576 x 880 km, 66.7° (Epoch: 19 September)

Event Time Altitude Azimuth Distance (km) Brightness Sun altitude
Rises 20:15:35 0° 328° (NNW) 3,286 ? -15.9°
Reaches altitude 10° 20:17:56 10° 329° (NNW) 2,395 ? -16.3°
Maximum altitude 20:23:32 89° 59° (ENE) 852 ? -17.1°
Enters shadow 20:26:58 26° 149° (SSE) 1,631 ? -17.7°
